Starlink 31769

operational
NORAD ID: 59617 Int'l Des: 2024-080 Owner: SPXS Country: US Constellation: starlink
LEOCIRCULAR

Starlink 31769について

説明を読み込み中...

リアルタイム位置

3D地球を読み込み中...

次回通過

高度履歴

Altitude vs Time

uPlot chart will show altitude changes over time

軌道要素

1 59617U 24080S 25352.11929072 -.00000597 00000-0 -12190-4 0 9990
2 59617 43.0013 138.9084 0001062 273.6763 86.3967 15.27577918 92054
Epoch: Dec 18, 2025 • Age: 10 hours

現在のステータス

高度 486.0 km
速度 7.63 km/s
衛星直下点 38.94°N, 21.91°W
打ち上げ日 Apr 28, 2024
運用期間 1.6 years
タイプ internet

技術仕様

分類 Payload
質量 730.00 kg
乾燥質量 700.00 kg
総質量 730.00 kg
長さ 0.30 m
直径 4.10 m
スパン 29.00 m
形状 Box + pan
製造者 SPXS
バスタイプ Starlink V2M
フェーズステータス In Orbit
所有者/国 SPXS/US

大規模コンステレーション

Loading constellations...